EST,Max TemperatureF,Mean TemperatureF,Min TemperatureF,Max Dew PointF,MeanDew PointF,Min DewpointF,Max Humidity, Mean Humidity, Min Humidity, Max Sea Level PressureIn, Mean Sea Level PressureIn, Min Sea Level PressureIn, Max VisibilityMiles, Mean VisibilityMiles, Min VisibilityMiles, Max Wind SpeedMPH, Mean Wind SpeedMPH, Max Gust SpeedMPH,PrecipitationIn, CloudCover, Events, WindDirDegrees
2012-12-1,61,50,39,47,41,35,100,70,39,30.42,30.38,30.34,10,8,4,7,2,12,0.00,0,,8
2012-12-2,63,51,38,51,46,37,100,78,56,30.42,30.37,30.29,10,7,1,6,3,8,0.00,0,,63
2012-12-3,68,62,55,57,55,51,93,81,68,30.31,30.28,30.24,10,9,4,14,7,22,0.00,0,,252
2012-12-4,64,60,55,58,56,54,100,89,78,30.35,30.28,30.22,10,10,7,10,4,14,0.00,1,,246
2012-12-5,68,61,53,57,52,42,100,83,66,30.20,30.16,30.09,10,10,9,14,8,22,T,5,Rain,294
2012-12-6,55,52,49,45,42,40,77,70,63,30.30,30.24,30.19,10,10,10,16,9,23,0.00,4,,40
2012-12-7,68,60,51,61,57,47,97,83,68,30.18,30.09,30.01,10,6,1,14,8,20,0.54,6,Rain,123
2012-12-8,64,60,56,61,59,55,100,92,84,30.08,30.00,29.95,10,4,0,16,7,22,0.07,6,Fog-Rain,243
2012-12-9,67,60,52,59,55,52,100,82,63,30.19,30.13,30.08,10,7,2,7,3,,0.00,1,,203
2012-12-10,65,63,60,62,61,60,100,97,93,29.83,29.81,29.80,7,2,0,16,13,24,0.08,5,Fog,228
2012-12-11,71,63,54,66,58,50,100,90,80,30.10,29.94,29.79,10,7,2,18,10,23,0.14,6,Rain,312
2012-12-12,55,53,51,52,51,48,96,90,83,30.23,30.17,30.11,10,9,5,23,15,37,0.47,8,Rain,38
2012-12-13,55,53,50,52,48,46,100,89,77,30.27,30.20,30.12,10,8,2,22,14,38,0.68,7,Rain,31
2012-12-14,57,47,36,47,44,36,92,82,71,30.33,30.27,30.24,10,10,10,15,7,25,0.00,0,,35
2012-12-15,60,48,35,55,44,34,93,77,61,30.28,30.21,30.11,10,10,4,10,4,15,0.00,2,,49
2012-12-16,62,59,56,61,57,55,100,89,78,30.10,30.03,29.92,10,4,0,13,6,21,0.31,7,Fog-Rain,240
2012-12-17,63,60,56,61,57,55,100,95,90,29.90,29.83,29.71,10,3,0,18,5,24,0.54,7,Fog-Rain,244
2012-12-18,63,58,52,57,52,39,100,82,64,29.89,29.72,29.65,10,10,8,22,11,29,0.02,3,Rain,268
2012-12-19,59,52,45,48,42,36,93,76,59,30.15,30.01,29.89,10,10,10,15,7,22,0.00,0,,294
2012-12-20,67,57,47,58,49,41,86,74,61,30.19,30.03,29.67,10,10,8,30,11,41,T,2,Rain,106
2012-12-21,67,55,42,64,47,24,100,73,45,29.74,29.56,29.45,10,6,1,37,21,48,0.50,6,Rain,246
2012-12-22,48,44,39,34,27,24,60,51,42,30.09,29.93,29.75,10,10,10,25,15,39,0.00,0,,298
2012-12-23,52,47,41,40,31,25,83,62,41,30.17,30.09,30.06,10,10,10,12,7,17,0.00,0,,282
2012-12-24,61,53,44,49,43,34,82,67,51,30.09,30.02,29.95,10,10,10,13,6,21,T,2,Rain,256
2012-12-25,56,52,48,49,46,42,89,80,71,30.12,30.06,29.94,10,10,10,13,6,21,0.00,5,,1
2012-12-26,66,59,52,63,58,46,100,86,72,30.08,29.71,29.45,10,5,0,35,17,49,1.79,7,Fog-Rain,177
2012-12-27,53,49,44,45,36,32,80,66,52,30.04,29.82,29.56,10,10,10,23,15,39,0.00,1,,294
2012-12-28,46,41,35,38,34,31,92,77,62,30.18,30.10,30.04,10,10,10,13,3,20,0.00,0,,24
2012-12-29,64,54,44,63,52,34,100,83,65,30.02,29.66,29.51,10,6,0,21,11,33,1.37,7,Fog-Rain,321
2012-12-30,47,44,40,33,27,23,67,54,41,30.38,30.17,29.85,10,10,10,22,14,33,0.00,0,,315
2012-12-31,55,46,37,47,32,24,77,61,45,30.39,30.29,30.14,10,10,10,20,10,26,0.00,1,,275